Content
SEND FEEDBACK

Daily
Averages
Monthly
Summary
Turkey

ADIYAMAN, TURKEY


Home > Middle East > Turkey
Elevation: 678 meters     Latitude: 37 48N     Longitude: 038 18E

WEATHER
 
SELECT A DAY
Number of Records: 143,011;   Date Range: 7/1/96 - 9/30/14
 
SHARE

PRINT THIS DATA

[ ← Previous Day ]
WEATHER ALMANAC - 31 JANUARY, 2013
[ Next Day → ]
[ °F ]   °C
Weather ElementAverageHighLow
Temperature2.6 °C4 °C (1:50 pm)0 °C (1:20 am)
Dewpoint2.3 °C4 °C (4:20 pm)0 °C (1:20 am)
Humidity98.7 %100 % (12:50 am)87 % (3:20 pm)
Barometer1005.8 hPa1008.1 hPa (12:50 am)1005.1 hPa (11:50 am)
Wind Speed7.7 km/h14.8 km/h (2:20 am)
Weather ElementAverage
Visibility8.5 km
Wind DirectionS (176.6 °)

Weather ElementTotal
Precipitation---
Heating Degree Days16.3 (Base 18.3)
Averaged from 47 records on 31 January, 2013
WEATHER CONDITIONS BREAKOUT
WIND DIRECTION BREAKOUT
WEATHER BY HOUR - 31 JANUARY, 2013
[ °F ]   °C
Local TimeTemperatureDewpointHumidityBarometerVisibilityWind DirectionWind SpeedGust SpeedPrecipitationEventsConditions
12:50 AM1 °C1 °C100 %1008.1 hPa1.6 kmNNW (330°)3.7 km/hRainRain
1:20 AM0 °C0 °C100 %1008.1 hPa1.6 kmNorth (10°)1.9 km/hRainRain
1:50 AM0 °C0 °C100 %1008.1 hPa1.8 kmNorth (350°)5.6 km/hRainRain
2:20 AM1 °C1 °C100 %1007.1 hPa6.9 kmNNW (330°)14.8 km/hRainRain
2:50 AM1 °C1 °C100 %1007.1 hPa10 kmNW (320°)11.1 km/hRain-SnowLight Snow
3:20 AM1 °C1 °C100 %1006.1 hPa10 kmNW (320°)9.3 km/hRain-SnowLight Snow
3:50 AM2 °C2 °C100 %1006.1 hPa10 kmNNW (330°)11.1 km/hRain-SnowLight Snow
4:20 AM2 °C2 °C100 %1006.1 hPa10 kmNorth (10°)11.1 km/hRain-SnowLight Snow
4:50 AM2 °C2 °C100 %1006.1 hPa10 kmNorth (10°)7.4 km/hOvercast
5:20 AM2 °C2 °C100 %1006.1 hPa10 kmNorth (10°)5.6 km/hRain-SnowLight Snow
5:50 AM2 °C2 °C100 %1006.1 hPa10 kmNorth (350°)7.4 km/hRain-SnowLight Snow
6:20 AM2 °C2 °C100 %1006.1 hPa10 kmNorth (10°)9.3 km/hRain-SnowLight Snow
6:50 AM2 °C2 °C100 %1006.1 hPa10 kmNorth (350°)9.3 km/hRain-SnowLight Snow
7:20 AM2 °C2 °C100 %1006.1 hPa10 kmNNW (340°)9.3 km/hRain-SnowLight Snow
7:50 AM2 °C2 °C100 %1006.1 hPa10 kmNorth (360°)7.4 km/hRain-SnowLight Snow
8:20 AM3 °C2 °C93 %1006.1 hPa8 kmNNE (30°)7.4 km/hRainLight Rain
8:50 AM2 °C2 °C100 %1006.1 hPa8 kmNNE (30°)7.4 km/hRainLight Rain
9:20 AM2 °C2 °C100 %1006.1 hPa4 kmNNE (20°)11.1 km/hRain-SnowLight Rain
9:50 AM2 °C2 °C100 %1006.1 hPa6 kmNorth (350°)14.8 km/hRain-SnowLight Rain
10:20 AM2 °C2 °C100 %1006.1 hPa6 kmNorth (350°)13 km/hRain-SnowLight Rain
10:50 AM2 °C2 °C100 %1006.1 hPa6 kmNorth (360°)11.1 km/hRain-SnowLight Rain
11:20 AM2 °C1 °C93 %1006.1 hPa6 kmNorth (350°)11.1 km/hRain-SnowLight Rain
11:50 AM2 °C2 °C100 %1005.1 hPa6 kmNorth (350°)11.1 km/hRainLight Rain
12:20 PM3 °C2 °C93 %1005.1 hPa6.9 kmNorth (10°)7.4 km/hOvercast
12:50 PM3 °C3 °C100 %1005.1 hPa8 kmNorth (10°)7.4 km/hOvercast
1:20 PM3 °C3 °C100 %1005.1 hPa8 kmNNE (20°)5.6 km/hOvercast
1:50 PM4 °C3 °C93 %1005.1 hPa10 kmNorth (360°)5.6 km/hOvercast
2:20 PM4 °C3 °C93 %1005.1 hPa10 kmVariable3.7 km/hOvercast
2:50 PM4 °C3 °C93 %1005.1 hPa10 kmVariable3.7 km/hOvercast
3:20 PM4 °C2 °C87 %1005.1 hPa10 kmSouth (190°)5.6 km/hOvercast
3:50 PM4 °C3 °C93 %1005.1 hPa10 kmSW (220°)7.4 km/hOvercast
4:20 PM4 °C4 °C100 %1005.1 hPa10 kmSouth (180°)5.6 km/hOvercast
4:50 PM4 °C4 °C100 %1005.1 hPa10 kmSouth (190°)5.6 km/hOvercast
5:20 PM4 °C4 °C100 %1005.1 hPa10 kmSSW (200°)7.4 km/hOvercast
5:50 PM3 °C3 °C100 %1005.1 hPa10 kmSSW (210°)11.1 km/hOvercast
6:20 PM3 °C3 °C100 %1005.1 hPa10 kmSSW (200°)7.4 km/hOvercast
6:50 PM3 °C3 °C100 %1005.1 hPa10 kmSW (230°)9.3 km/hOvercast
7:20 PM3 °C3 °C100 %1005.1 hPa10 kmSSW (210°)7.4 km/hMostly Cloudy
7:50 PM3 °C3 °C100 %1005.1 hPa10 kmSSE (160°)11.1 km/hMostly Cloudy
8:20 PM3 °C3 °C100 %1006.1 hPa10 kmVariable3.7 km/hMostly Cloudy
8:50 PM3 °C3 °C100 %1006.1 hPa10 kmSouth (170°)9.3 km/hMostly Cloudy
9:20 PM3 °C3 °C100 %1006.1 hPa10 kmWest (260°)7.4 km/hMostly Cloudy
9:50 PM3 °C3 °C100 %1006.1 hPa10 kmVariable1.9 km/hMostly Cloudy
10:20 PM3 °C3 °C100 %1006.1 hPa10 kmVariable3.7 km/hMostly Cloudy
10:50 PM3 °C3 °C100 %1006.1 hPa10 kmVariable3.7 km/hMostly Cloudy
11:20 PM3 °C3 °C100 %1006.1 hPa10 kmVariable3.7 km/hMostly Cloudy
11:50 PM3 °C3 °C100 %1006.1 hPa10 kmSSW (210°)7.4 km/hMostly Cloudy
Hourly data recorded from LTCP, located 0 kilometers away from Adiyaman, Turkey







STORIES FROM OUR PARTNERS